Regional Weather Roundup
Issued by NWS

Home | Current Version | Previous Version | Graphics & Text | Print | Product List | Glossary On
Versions: 1 2 3 4 5 6 7 8 9 10 11 12 13 14 15 16 17 18 19 20 21 22 23 24 25 26 27 28 29 30 31 32 33 34 35 36 37 38 39 40 41 42 43 44 45 46 47 48 49 50
311
ASUS44 KLIX 300705
RWRLA
LOUISIANA WEATHER ROUNDUP
NATIONAL WEATHER SERVICE NEW ORLEANS LA
100 AM CST FRI JAN 30 2015

NOTE: "FAIR" INDICATES FEW OR NO CLOUDS BELOW 12,000 FEET WITH NO
      SIGNIFICANT WEATHER AND/OR OBSTRUCTIONS TO VISIBILITY.
      SKY/WX - SKY CONDITION AND SIGNIFICANT WEATHER.
      TMP - AIR TEMPERATURE.    DP   - DEWPOINT TEMPERATURE.
      RH  - RELATIVE HUMIDITY.  PRES - PRESSURE.
      HX  - HEAT INDEX.         WCI  - WIND CHILL INDEX.

*  THESE STATIONS ARE NOT NWS OR FAA STATIONS AND ARE NOT UNDER
   NWS QUALITY CONTROL.

LAZ040-048-061>063-065-066-069-300800-
SOUTHEAST LOUISIANA

CITY           SKY/WX    TMP DP  RH WIND       PRES   REMARKS
N.O. AUDUBON     N/A     58  58 100 MISG        N/A
N.O. INTL ARPT MOCLDY    58  54  86 NW6       30.23S
N.O. LAKEFRONT CLOUDY    59  54  83 W10       30.24R
N.O. DOWNTOWN* NOT AVBL
SLIDELL        CLOUDY    61  52  72 N8        30.24R
BATON ROUGE    MOCLDY    60  45  57 N10G17    30.28R
BOOTHVILLE     PTCLDY    62  60  93 W8        30.24S
BELLE CHASSE   MOCLDY    59  55  87 W5        30.23S
BOGALUSA*        N/A     59  49  67 N14       30.27R
GALLIANO*      SUNNY     56  55  97 W5        30.25S
NEW ROADS*     FAIR      57  42  58 N21       30.30R
GONZALES*      CLOUDY    62  57  84 N8        30.25R
HAMMOND*       CLOUDY    59  48  67 N12G17    30.28R
HOUMA*         FOG       57  57 100 W6        30.25S VSB 1/2
PORT FOURCHON* SUNNY     63  61  94 W7        30.28S

$$

LAZ041-044-053-054-300800-
SOUTHWEST LOUISIANA

CITY           SKY/WX    TMP DP  RH WIND       PRES   REMARKS
LAKE CHARLES   CLEAR     60  46  59 N15       30.29S
LAFAYETTE      PTCLDY    60  48  64 N15       30.28R
PATTERSON      CLEAR     57  55  94 W6        30.26S
SALT POINT       N/A     55  54  96 CALM      30.24F
NEW IBERIA     CLEAR     58  54  86 N10       30.27S
CHENAULT AIRPK CLEAR     58  47  66 N7        30.30S

$$

LAZ027-028-300800-
CENTRAL LOUISIANA

CITY           SKY/WX    TMP DP  RH WIND       PRES   REMARKS
FORT POLK      PTCLDY    56  41  58 N8        30.33S
ALEXANDRIA INT CLEAR     54  42  64 NE12      30.34R
ALEXANDRIA     CLEAR     51  39  63 NE13G22   30.37R

$$

LAZ001-002-300800-
NORTHWEST LOUISIANA

CITY           SKY/WX    TMP DP  RH WIND       PRES   REMARKS
SHREVEPORT     CLOUDY    47  35  63 N12       30.43S
BARKSDALE AFB  PTCLDY    46  34  64 N7        30.43F
DTN SHREVEPORT PTCLDY    47  33  58 N8        30.44S

$$

LAZ014-016-300800-
NORTHEAST LOUISIANA

CITY           SKY/WX    TMP DP  RH WIND       PRES   REMARKS
MONROE         CLOUDY    45  35  68 N12       30.43R
TALLULAH       PTCLDY    44  34  67 N16G23    30.41S

$$




USA.gov is the U.S. government's official web portal to all federal, state and local government web resources and services.